Overview Statistics Trail Chart Weather Telemetry Raw packets
 

This is the latest recevied weather packets stored in our database for station/object W6JCZ-13. If no packets are shown the sender has not sent any weather packets the latest 10 day(s).

<< 40 41 42 43 44 45 46 >>
Time Temp. Humidity Pressure Rain* Wind** Luminosity Snow
1788013816 12.22° C 89% 1011.7 hPa 0 mm - - -
1788013216 11.67° C 89% 1011.6 hPa 0 mm - - -
1788012616 11.11° C 89% 1011.5 hPa 0 mm - - -
1788012016 11.11° C 88% 1011.5 hPa 0 mm - - -
1788011416 11.11° C 88% 1011.5 hPa 0 mm - - -
1788010816 11.67° C 88% 1011.5 hPa 0 mm - - -
1788010216 11.67° C 88% 1011.6 hPa 0 mm - - -
1788009620 11.67° C 87% 1011.4 hPa 0 mm - - -
1788009016 11.67° C 87% 1011.5 hPa 0 mm - - -
1788008417 11.67° C 87% 1011.3 hPa 0 mm - - -
1788007816 11.67° C 87% 1011.3 hPa 0 mm - - -
1788007216 12.22° C 87% 1011.3 hPa 0 mm - - -
1788006616 12.22° C 87% 1011.2 hPa 0 mm - - -
1788006016 11.67° C 86% 1011.2 hPa 0 mm - - -
1788005418 12.22° C 85% 1011.2 hPa 0 mm - - -
1788004816 12.22° C 85% 1011.1 hPa 0 mm - - -
1788004216 12.22° C 85% 1010.9 hPa 0 mm - - -
1788003616 12.78° C 84% 1010.9 hPa 0 mm - - -
1788003016 12.78° C 82% 1011 hPa 0 mm - - -
1788002416 13.33° C 82% 1011 hPa 0 mm - - -
1788001816 13.33° C 81% 1011 hPa 0 mm - - -
1788001216 13.89° C 81% 1010.9 hPa 0 mm - - -
1788000616 13.89° C 80% 1010.8 hPa 0 mm - - -
1788000016 14.44° C 78% 1010.6 hPa 0 mm - - -
1787999416 15° C 76% 1010.6 hPa 0 mm - - -

* Rain latest hour (hover to see other rain measurements)
** Current wind speed in m/s (hover to see current wind gust speed)